Weather History for KITH - May, 2013

Change the Weather History Date:

Tuesday, May 28, 2013

  Actual Average Record
Temperature  
Mean Temperature 52 °F -  
Max Temperature 59 °F 69 °F 90 °F (1931)
Min Temperature 48 °F 46 °F 30 °F (1949)
Degree Days  
Heating Degree Days 12    
Growing Degree Days 2 (Base 50)    
Moisture  
Dew Point 49 °F    
Average Humidity 82    
Maximum Humidity 97    
Minimum Humidity 59    
Precipitation  
Precipitation 0.39 in - - ()
Sea Level Pressure  
Sea Level Pressure 30.13 in    
Wind  
Wind Speed 7 mph (SE)    
Max Wind Speed 13 mph    
Max Gust Speed 17 mph    
Visibility 8 miles    
Events Rain    
Averages and records for this station are not official NWS values.
T = Trace of Precipitation, MM = Missing Value Source: NWS Daily Summary

Daily Weather History Graph

Daily Weather History Graph

Search for Another Location

Airport or City:

Trip Planner

Search our weather history database for the weather conditions in past years. The results will help you decide how hot, cold, wet, or windy it might be!

Date:

Astronomy

May. 28, 2013 Rise Set
Actual Time 5:33 AM EDT 8:33 PM EDT
Civil Twilight 4:59 AM EDT 9:07 PM EDT
Nautical Twilight 4:16 AM EDT 9:50 PM EDT
Astronomical Twilight 3:26 AM EDT 10:41 PM EDT
Moon 11:52 PM EDT 9:20 AM EDT
Length of Visible Light 16h 07m
Length of Day
15h 00m
Waning Gibbous, 83% of the Moon is Illuminated
May 28
Waning Gibbous
May 31
Last Quarter
Jun 8
New
Jun 16
First Quarter
Jun 23
Full

Hourly Weather History & Observations

Time (EDT) Temp. Dew Point Humidity Pressure Visibility Wind Dir Wind Speed Gust Speed Precip Events Conditions
12:56 AM 50.0 °F 39.9 °F 68% 30.20 in 10.0 mi East 5.8 mph - N/A   Clear
1:56 AM 48.9 °F 39.9 °F 71% 30.19 in 10.0 mi Calm Calm - N/A   Clear
2:56 AM 48.9 °F 37.9 °F 66% 30.18 in 10.0 mi East 5.8 mph - N/A   Clear
3:56 AM 50.0 °F 36.0 °F 59% 30.17 in 10.0 mi East 5.8 mph - N/A   Clear
4:56 AM 48.9 °F 36.9 °F 63% 30.17 in 10.0 mi East 5.8 mph - N/A   Clear
5:56 AM 50.0 °F 37.9 °F 63% 30.15 in 10.0 mi East 4.6 mph - N/A   Clear
6:56 AM 50.9 °F 38.8 °F 63% 30.16 in 10.0 mi ESE 3.5 mph - N/A   Mostly Cloudy
7:56 AM 54.9 °F 43.0 °F 64% 30.16 in 10.0 mi SE 3.5 mph - N/A   Mostly Cloudy
8:56 AM 55.9 °F 43.0 °F 62% 30.17 in 10.0 mi SSE 9.2 mph - N/A   Overcast
9:56 AM 54.9 °F 45.9 °F 72% 30.16 in 10.0 mi South 10.4 mph 17.3 mph 0.00 in Rain Light Rain
10:56 AM 52.0 °F 48.9 °F 89% 30.16 in 6.0 mi SSE 10.4 mph - 0.03 in Rain Light Rain
11:56 AM 52.9 °F 50.0 °F 90% 30.17 in 5.0 mi SSE 8.1 mph - 0.08 in Rain Rain
12:56 PM 54.9 °F 52.0 °F 90% 30.14 in 7.0 mi SE 9.2 mph - 0.03 in Rain Light Rain
1:56 PM 56.8 °F 52.9 °F 87% 30.14 in 10.0 mi SSE 10.4 mph - 0.01 in   Overcast
2:56 PM 57.9 °F 54.0 °F 87% 30.12 in 10.0 mi SSE 10.4 mph - 0.00 in Rain Light Rain
3:56 PM 56.8 °F 52.9 °F 87% 30.13 in 10.0 mi SSE 10.4 mph - 0.00 in   Overcast
4:56 PM 56.8 °F 52.9 °F 87% 30.12 in 10.0 mi SSE 12.7 mph - N/A   Overcast
5:56 PM 56.8 °F 54.0 °F 90% 30.10 in 10.0 mi SSE 10.4 mph - 0.00 in   Overcast
6:56 PM 55.9 °F 54.0 °F 93% 30.08 in 8.0 mi SSE 9.2 mph - 0.00 in Rain Light Rain
7:56 PM 55.9 °F 54.0 °F 93% 30.07 in 6.0 mi SSE 9.2 mph - 0.00 in Rain Light Rain
8:56 PM 55.9 °F 54.9 °F 96% 30.08 in 6.0 mi SSE 9.2 mph - 0.00 in   Overcast
9:56 PM 56.8 °F 54.9 °F 93% 30.07 in 3.0 mi SE 10.4 mph - 0.05 in Rain Rain
10:11 PM 57.2 °F 55.4 °F 94% 30.07 in 9.0 mi SSE 11.5 mph - 0.01 in Rain Light Rain
10:18 PM 57.2 °F 55.4 °F 94% 30.07 in 9.0 mi SSE 8.1 mph - 0.01 in   Mostly Cloudy
10:56 PM 56.8 °F 54.9 °F 93% 30.08 in 4.0 mi South 9.2 mph - 0.06 in Rain Rain
11:33 PM 57.2 °F 55.4 °F 94% 30.07 in 6.0 mi South 8.1 mph - 0.12 in Rain Light Rain
11:56 PM 56.8 °F 55.9 °F 97% 30.07 in 7.0 mi SSE 10.4 mph - 0.13 in Rain Light Rain